+ View the NASA Portal
+ Center for Near-Earth Object Studies
JPL Small-Body Database Browser
Search:
[
help
]
150102 (3503 T-3)
Classification:
Main-belt Asteroid
SPK-ID:
2150102
[
Ephemeris
|
Orbit Diagram
|
Orbital Elements
|
Mission Design
|
Physical Parameters
|
Discovery Circumstances
]
[ show orbit diagram ]
Orbital Elements at Epoch 2459200.5 (2020-Dec-17.0) TDB
Reference:
JPL 18
(heliocentric ecliptic J2000)
Element
Value
Uncertainty (1-sigma)
Units
e
.2419923943487075
5.0578e-08
a
2.324291408912248
9.2489e-09
au
q
1.761830565705442
1.1813e-07
au
i
1.329718374307912
4.6581e-06
deg
node
177.5061793145099
0.00018097
deg
peri
186.2405206996173
0.00018115
deg
M
76.39842490069898
9.3015e-06
deg
t
p
2458925.826857395213
(2020-Mar-17.32685740)
3.2774e-05
TDB
period
1294.298036461466
3.54
7.7255e-06
2.115e-08
d
yr
n
.2781430473186983
1.6602e-09
deg/d
Q
2.886752252119053
1.1487e-08
au
Orbit Determination Parameters
# obs. used (total)
767
data-arc span
15809 days (43.28 yr)
first obs. used
1977-10-07
last obs. used
2021-01-18
planetary ephem.
DE431
SB-pert. ephem.
SB431-N16
condition code
0
norm. resid. RMS
.48443
source
ORB
producer
Otto Matic
solution date
2021-Feb-24 10:38:19
Additional Information
Earth MOID
= .758035 au
Jupiter MOID
= 2.57334 au
T_jup
= 3.535
[ show covariance matrix ]
[
Ephemeris
|
Orbit Diagram
|
Orbital Elements
|
Mission Design
|
Physical Parameters
|
Discovery Circumstances
]
Physical Parameter Table
Parameter
Symbol
Value
Units
Sigma
Reference
Notes
absolute magnitude
H
16.3
n/a
MPO436757
diameter
diameter
2.971
km
0.057
urn:nasa:pds:neowise_diameters_albedos::2.0[mainbelt] (http://adsabs.harvard.edu/abs/2011ApJ...741...68M)
geometric albedo
albedo
0.066
0.017
urn:nasa:pds:neowise_diameters_albedos::2.0[mainbelt] (http://adsabs.harvard.edu/abs/2011ApJ...741...68M)
150102 (3503 T-3)
Discovered 1977-Oct-16 by van Houten, C. J., van Houten-Groeneveld, I., Gehrels, T. at Palomar
Reference:
20070202/Numbers.arc
Last Updated:
2007-02-06
Alternate Designations
3503 T-3
= 2002 VT33
[
Ephemeris
|
Orbit Diagram
|
Orbital Elements
|
Mission Design
|
Physical Parameters
|
Discovery Circumstances
]
2021-Apr-12 01:22 UT
(server date/time)
Site Manager:
Ryan S. Park
Webmaster
:
Alan B. Chamberlin